Powrót do katalogu

THORAD AGENA D DEB

AktywnyLEO
NORAD 4547·DEBRIS·🇺🇸 United States

Wystrzelony Sep 30, 1969 z Vandenberg Space Force Base

Loading…

Następne Przeloty (najbliższe 24 godziny)

TLE

ŚwieżeSource: Space-Track

Epoka: Sep 14, 2026, 15:55 UTC

1 04547U 69082GN  26257.66336844  .00000611  00000-0  23192-3 0  9995
2 04547  69.9904 348.5634 0030573  78.8683 281.5878 14.35390845944851

Śledź THORAD AGENA D DEB w czasie rzeczywistym z AllMySat

Download on the App Store